User: anonymous   Login
Location: Waning Moon II Observatory
(30.3730°N, 89.7620°W)
Time: 00:47:52
(UTC-05:00)
Language:

Cosmos 1825 Rocket - Orbit

View from above orbital plane
View from above orbital plane
View from above satellite
View from above satellite

Ground track
Ground track

The orbit data is extracted from the following two-line orbital elements,

1 17567U 87024B   15142.16727518  .00000308  00000-0  34585-4 0  9997
2 17567 082.5294 187.4420 0018352 327.2097 032.7977 14.83432361524228
Epoch (UTC): 22 May 2015 04:00:52
Eccentricity: 0.0018352
inclination: 82.5294°
perigee height: 605 km
apogee height: 631 km
right ascension of ascending node: 187.4420°
argument of perigee: 327.2097°
revolutions per day: 14.83432361
mean anomaly at epoch: 32.7977°
orbit number at epoch: 52422

The dashed part of the orbit path shows where the satellite is in the earth's shadow,  

DLR